Weather History for Elko, NV

Change the Weather History Date:

Friday, June 21, 2013

  Actual Average Record
Temperature  
Mean Temperature 58 °F 64 °F  
Max Temperature 73 °F 82 °F 98 °F (2012)
Min Temperature 42 °F 46 °F 28 °F (1960)
Degree Days  
Heating Degree Days 7 3  
Month to date heating degree days 50 112  
Since 1 June heating degree days 50 112  
Since 1 July heating degree days 6772 7047  
Cooling Degree Days 0 2  
Month to date cooling degree days 55 24  
Year to date cooling degree days 59 28  
Since 1 June cooling degree days 55 24  
Growing Degree Days 8 (Base 50)    
Moisture  
Dew Point 25 °F    
Average Humidity 40    
Maximum Humidity 70    
Minimum Humidity 9    
Precipitation  
Precipitation 0.00 in 0.02 in 1.00 in (1918)
Month to date precipitation 0.16 0.53  
Year to date precipitation 2.83 5.42  
Snow  
Snow 0.00 in 0.00 in T in (2009)
Month to date snowfall 0.0 0.0  
Since 1 June snowfall 0.0 0.0  
Since 1 July snowfall 42.2 41.3  
Snow Depth 0.00 in    
Sea Level Pressure  
Sea Level Pressure 29.95 in    
Wind  
Wind Speed 7 mph (West)    
Max Wind Speed 18 mph    
Max Gust Speed 25 mph    
Visibility 10 miles    
Events      
T = Trace of Precipitation, MM = Missing Value Source: NWS Daily Summary

Daily Weather History Graph

Daily Weather History Graph

Search for Another Location

Airport:

Trip Planner

Search our weather history database for the weather conditions in past years. The results will help you decide how hot, cold, wet, or windy it might be!

Date:

Astronomy

Jun. 21, 2013 Rise Set
Actual Time 5:11 AM PDT 8:18 PM PDT
Civil Twilight 4:38 AM PDT 8:51 PM PDT
Nautical Twilight 3:55 AM PDT 9:34 PM PDT
Astronomical Twilight 3:04 AM PDT 10:25 PM PDT
Moon 6:33 PM PDT (6/21) 3:31 AM PDT (6/21)
Length of Visible Light 16h 13m
Length of Day
15h 06m
Waxing Gibbous, 96% of the Moon is Illuminated
Jun 21
Waxing Gibbous
Jun 23
Full
Jun 29
Last Quarter
Jul 8
New
Jul 15
First Quarter

Hourly Weather History & Observations

Time (PDT) Temp. Windchill Dew Point Humidity Pressure Visibility Wind Dir Wind Speed Gust Speed Precip Events Conditions
12:56 AM 54.0 °F - 28.9 °F 38% 29.91 in 10.0 mi Variable 5.8 mph - N/A   Mostly Cloudy
1:56 AM 52.0 °F - 30.9 °F 45% 29.93 in 10.0 mi NNW 12.7 mph - N/A   Mostly Cloudy
2:56 AM 50.0 °F - 34.0 °F 54% 29.98 in 10.0 mi Variable 4.6 mph - N/A   Mostly Cloudy
3:56 AM 48.9 °F - 35.1 °F 59% 29.98 in 10.0 mi Calm Calm - N/A   Scattered Clouds
4:56 AM 46.0 °F - 34.0 °F 63% 29.99 in 10.0 mi Calm Calm - N/A   Clear
5:56 AM 43.0 °F 41.3 °F 33.1 °F 68% 30.00 in 10.0 mi WNW 3.5 mph - N/A   Clear
6:56 AM 50.0 °F - 35.1 °F 57% 29.99 in 10.0 mi Calm Calm - N/A   Clear
7:56 AM 52.0 °F - 33.1 °F 49% 30.00 in 10.0 mi Calm Calm - N/A   Clear
8:56 AM 55.0 °F - 33.1 °F 43% 30.01 in 10.0 mi SW 6.9 mph - N/A   Clear
9:56 AM 59.0 °F - 32.0 °F 36% 29.99 in 10.0 mi South 6.9 mph - N/A   Clear
10:56 AM 62.1 °F - 24.1 °F 23% 29.98 in 10.0 mi SW 12.7 mph - N/A   Clear
11:56 AM 63.0 °F - 21.0 °F 20% 29.97 in 10.0 mi Variable 5.8 mph - N/A   Clear
12:56 PM 68.0 °F - 21.9 °F 17% 29.95 in 10.0 mi SW 9.2 mph - N/A   Clear
1:56 PM 68.0 °F - 17.1 °F 14% 29.94 in 10.0 mi SSW 10.4 mph 16.1 mph N/A   Clear
2:56 PM 71.1 °F - 10.9 °F 10% 29.92 in 10.0 mi WSW 13.8 mph 18.4 mph N/A   Clear
3:56 PM 72.0 °F - 14.0 °F 11% 29.91 in 10.0 mi SSW 8.1 mph - N/A   Clear
4:56 PM 70.0 °F - 12.0 °F 11% 29.91 in 10.0 mi WNW 4.6 mph 18.4 mph N/A   Clear
5:56 PM 72.0 °F - 16.0 °F 12% 29.90 in 10.0 mi West 12.7 mph 24.2 mph N/A   Clear
6:56 PM 70.0 °F - 17.1 °F 13% 29.90 in 10.0 mi West 13.8 mph - N/A   Clear
7:56 PM 66.9 °F - 16.0 °F 14% 29.91 in 10.0 mi WNW 11.5 mph - N/A   Clear
8:56 PM 61.0 °F - 16.0 °F 17% 29.93 in 10.0 mi NW 5.8 mph - N/A   Clear
9:56 PM 60.1 °F - 23.0 °F 24% 29.95 in 10.0 mi NNW 6.9 mph - N/A   Clear
10:56 PM 57.0 °F - 28.0 °F 33% 29.97 in 10.0 mi Variable 5.8 mph - N/A   Clear
11:56 PM 55.0 °F - 30.0 °F 38% 29.98 in 10.0 mi NE 5.8 mph - N/A   Clear